Home   Weather   Bangui   Past weeks

Flag for Central African Republic Past Weather in Bangui, Central African Republic — Yesterday and Last 2 Weeks

Now
91 °F

Partly sunny.


Feels Like: 103 °F
Forecast: 60 / 94 °F
Wind: 3 mph from North

Location: Bangui Airport

Current Time: Dec 8, 2016 at 1:00:01 pm

Latest Report: Dec 8, 2016 at 12:00 pm


Visibility: N/A

Pressure: 29.86 "Hg

Humidity: 59%

Dew Point: 75 °F

Location of BanguiLocation

Past Weather in Bangui — Graph

°F

Bangui Temperature Yesterday

Maximum temperature yesterday: 88 °F (at 2:00 pm)
Minimum temperature yesterday: 70 °F (at 4:00 am)
Average temperature yesterday: 77 °F

High & Low Weather Summary for the Past Weeks

 TemperatureHumidityPressure
High93 °F (Nov 25, 1:00 pm)100% (Nov 23, 11:00 pm)29.95 "Hg (Nov 23, 11:00 pm)
Low70 °F (Nov 24, 6:00 am)56% (Nov 24, 1:00 pm)29.68 "Hg (Nov 28, 3:00 pm)
Average79 °F86%29.84 "Hg
* Reported Nov 23 11:00 am — Dec 8 11:00 am, Bangui, Weather by CustomWeather, © 2016

Note: Actual official high and low records may vary slightly from our data, if they occured in-between our weather recording intervals... More about our weather records

Advertising

Bangui Weather History for the Previous 24 Hours

Scroll right to see more
 ConditionsComfort  
Time TempWeatherWind HumidityBarometerVisibility
11:00 am
Thu, Dec 8
90 °FScattered clouds.2 mph63%29.89 "HgN/A
10:00 am84 °FScattered clouds.2 mph74%29.92 "Hg5 mi
9:00 am81 °FFog.No wind84%29.95 "Hg2 mi
8:00 am75 °FFog.No wind94%29.95 "Hg2 mi
7:00 am72 °FFog.No wind100%29.92 "Hg2 mi
6:00 am70 °FFog.No wind100%29.89 "Hg2 mi
5:00 am70 °FPassing clouds.No wind100%29.89 "Hg4 mi
4:00 am70 °FPassing clouds.No wind100%29.86 "Hg4 mi
3:00 am72 °FPassing clouds.No wind100%29.86 "Hg4 mi
2:00 am72 °FPassing clouds.2 mph100%29.86 "Hg4 mi
1:00 am73 °FPassing clouds.No wind100%29.86 "Hg4 mi
12:00 am73 °FPassing clouds.No wind100%29.86 "Hg4 mi
11:00 pm
Wed, Dec 7
73 °FPassing clouds.No wind100%29.89 "Hg4 mi
10:00 pm75 °FPassing clouds.No wind100%29.89 "Hg4 mi
9:00 pm77 °FPassing clouds.3 mph94%29.89 "Hg4 mi
8:00 pm77 °FPassing clouds.1 mph94%29.86 "Hg4 mi
7:00 pm79 °FThunderstorms. Passing clouds.2 mph84%29.83 "Hg4 mi
6:00 pm79 °FThunderstorms. Passing clouds.3 mph89%29.80 "Hg5 mi
5:00 pm82 °FPassing clouds.7 mph79%29.80 "HgN/A
4:00 pm84 °FPassing clouds.9 mph70%29.77 "HgN/A
3:00 pm86 °FScattered clouds.8 mph70%29.77 "HgN/A
2:00 pm88 °FPartly sunny.5 mph66%29.80 "HgN/A
1:00 pm84 °FPartly sunny.6 mph70%29.80 "HgN/A
Weather by CustomWeather, © 2016

See weather overviewHow to use our weather pages